Regional Weather Roundup
Issued by NWS Grand Forks, ND

Home | Current Version | Previous Version | Text Only | Print | Product List | Glossary Off
Versions: 1 2 3 4 5 6 7 8 9 10 11 12 13 14 15 16 17 18 19 20 21 22 23 24 25 26 27 28 29 30 31 32 33 34 35 36 37 38 39 40 41 42 43 44 45 46 47 48 49 50

000
ASUS43 KFGF 271410
RWRFGF
PRAIRIE TO PINES  WEATHER ROUNDUP
NATIONAL WEATHER SERVICE EASTERN NORTH DAKOTA/GRAND FORKS ND
900 AM CDT FRI MAY 27 2016

 **SATELLITE DATA USED TO AUGMENT SKY COVER AT AUTOMATED STATIONS**
 *****  WEATHER ACROSS EASTERN NORTH DAKOTA  *****

CITY           SKY/WX    TMP DP  RH WIND       PRES   REMARKS
GRAND FORKS    MOSUNNY   62  54  74 CALM      29.80R
GRAND FRKS AFB NOT AVBL
GRAND FRKS NWS   N/A     63 N/A N/A E3          N/A
DEVILS LAKE    CLOUDY    57  54  89 NW6       29.82S
FARGO          MOSUNNY   63  57  81 N9        29.78R
WAHPETON ARPT  MOSUNNY   68  52  56 NE6       29.76F
$$

 ***** WEATHER ACROSS CENTRAL AND WESTERN NORTH DAKOTA  *****

CITY           SKY/WX    TMP DP  RH WIND       PRES   REMARKS
BISMARCK       SUNNY     57  51  80 NW7       29.84R
MINOT          CLOUDY    59  54  83 W6        29.83R
JAMESTOWN      MOSUNNY   61  55  81 NE9       29.80S
MINOT AFB      CLOUDY    55  54  94 NW9       29.82S
GARRISON         N/A     53  52  96 NW6       29.85R
WILLISTON      MOSUNNY   58  50  75 N3        29.87S
DICKINSON      SUNNY     53  47  79 NW6       29.84F
HETTINGER      CLOUDY    58  48  69 N3        29.86R
$$

 *****  OTHER AIRPORT OBSERVATIONS IN OUR AREA  *****

CITY           SKY/WX    TMP DP  RH WIND       PRES   REMARKS
WALHALLA       FAIR      59  59 100 W5        29.80S
GRAFTON AIRPOR FAIR      61  57  88 CALM      29.81S
VALLEY CITY AR FAIR      59  59 100 NE12      29.82R
CANDO          NOT AVBL
CAVALIER APRT  FAIR      59  55  88 W7        29.79F
GWINNER        FAIR      64  55  72 NE3       29.79R
SHEYENNE NWR     N/A     65  57  75 N5        29.95
ROLLA          PTSUNNY   55  55 100 NW10      29.83S
 ***** THE ABOVE OBSERVATIONS ARE NON NWS ARE NOT QUALITY
       CONTROLLED AND MAY MIS-REPORT RAIN FOR SNOW...
$$

  *****  WEATHER ACROSS NORTHERN MINNESOTA  *****

CITY           SKY/WX    TMP DP  RH WIND       PRES   REMARKS
FLAG ISLAND    SUNNY     59  55  88 CALM      29.80R
WARROAD        CLOUDY    55  52  88 SE3       29.82S
ROSEAU         CLOUDY    55  52  88 SE3       29.81R
HALLOCK        MOSUNNY   61  57  88 CALM      29.80R
THF RVR FALLS  MOSUNNY   61  52  72 CALM      29.82R
BAUDETTE       PTSUNNY   60  55  83 E3        29.82R
WASKISH        SUNNY     66  55  68 NE3       29.82R
CROOKSTON      SUNNY     63  55  77 NE5       29.81R
STEPHEN NDAWN    N/A     61  57  88 NW3         N/A
GREENBUSH NDAW   N/A     59  57  94 SE3         N/A
$$
  *****  WEATHER ACROSS CENTRAL AND WEST MINNESOTA  *****

CITY           SKY/WX    TMP DP  RH WIND       PRES   REMARKS
FOSSTON        PTSUNNY   66  64  94 SE5       29.81R
BEMIDJI        MOSUNNY   63  53  71 E5        29.82R
PARK RAPIDS    CLOUDY    63  53  70 NE6       29.80R
ELBOW LAKE     CLOUDY    66  54  63 E12       29.76S
WADENA         CLOUDY    59  52  77 NE7       29.78S
DETROIT LAKES  SUNNY     64  54  68 E3        29.80R
MOORHEAD       SUNNY     63  57  82 N6        29.79R
FERGUS FALLS   MOSUNNY   70  54  56 NE7       29.73F
MORRIS MN      CLOUDY    68  54  60 E9        29.75R
STAPLES        PTSUNNY   61  52  72 E5        29.79R
$$
  *****  WEATHER ELSEWHERE ACROSS MINNESOTA  *****

CITY           SKY/WX    TMP DP  RH WIND       PRES   REMARKS
DULUTH         CLOUDY    56  51  84 S8        29.88R
INTRNTL FALLS  SUNNY     63  54  72 NE5       29.84R
ELY            MOSUNNY   64  52  63 CALM      29.87R
CLOQUET        CLOUDY    54  50  87 E8        29.86S
WHEATON        PTSUNNY   73  55  53 N9        29.77R
BRAINERD       CLOUDY    63  55  75 CALM      29.81R
HIBBING        CLOUDY    58  54  86 SE5       29.86R
ALEXANDRIA     CLOUDY    62  54  74 NE6       29.77R
SAINT CLOUD    CLOUDY    66  57  72 SE8       29.78S
MINNEAPOLIS    CLOUDY    67  58  72 SE18      29.80S
$$

  *****  WEATHER ACROSS SOUTH DAKOTA  *****

CITY           SKY/WX    TMP DP  RH WIND       PRES   REMARKS
SIOUX FALLS    LGT RAIN  62  56  80 S9        29.78R
BROOKINGS      CLOUDY    61  56  83 CALM      29.77R
WATERTOWN      CLOUDY    66  56  70 NE6       29.77R
HURON          CLOUDY    62  59  90 MISG      29.73R
SISSETON         N/A     67  56  67 NE7       29.76R
ABERDEEN       CLOUDY    65  56  72 NE5       29.78R
MITCHELL       LGT RAIN  62  60  93 SE8       29.76R
PIERRE         CLOUDY    57  50  77 N15       29.76S
MOBRIDGE       MOSUNNY   61  51  70 N9        29.77F
RAPID CITY     CLOUDY    57  44  62 NE5       29.85S
$$

  *****  SOME WEATHER IN NEARBY STATES *****

CITY           SKY/WX    TMP DP  RH WIND       PRES   REMARKS
GLASGOW MT     SUNNY     54  48  80 CALM      29.91R
GREAT FALLS MT CLOUDY    52  44  74 SW5       29.88R
CHEYENNE WY    CLOUDY    48  36  63 N18G26    29.90R
SCOTTSBLUFF NE CLOUDY    54  45  71 N6        29.86R
OMAHA NE       PTSUNNY   67  60  78 VRB5      29.76R
DES MOINES IA  CLOUDY    64  60  87 E3        29.77R
DAVENPORT IA   CLOUDY    67  64  90 S15       29.84S
CHICAGO IL     LGT RAIN  69  65  86 SW8       29.90R
EAU CLAIRE WI  CLOUDY    63  59  87 CALM      29.86F
LA CROSSE WI   CLOUDY    67  63  87 CALM      29.82S
$$

  *****  SOME NATIONAL WEATHER *****

CITY           SKY/WX    TMP DP  RH WIND       PRES   REMARKS
LA GUARDIA NY  CLOUDY    78  67  68 SE7       30.06S
RALEIGH NC     MOSUNNY   77  62  59 SW9       30.16S
ATLANTA GA     PTSUNNY   74  59  59 S9        30.13F
NEW ORLEANS LA CLOUDY    81  71  71 SE9       29.97R
OKLAHOMA CITY  CLOUDY    68  63  84 W6        29.63R
ALBUQUERQUE NM MOSUNNY   52  27  38 S7        29.97R
SALT LAKE CITY PTSUNNY   56  43  61 SE9       29.97S
LOS ANGELES CA PTSUNNY   60  53  77 E8        29.95S
BOISE ID       CLOUDY    50  36  58 NW14      30.00R
SEATTLE WA     PTSUNNY   50  42  74 SW9       30.15R
$$

*** WEATHER ACROSS MANITOBA...SASKATCHEWAN AND ONTARIO ***
                ***ONTARIO***

CITY           SKY/WX    TMP DP  RH WIND       PRES   REMARKS
GERALDTON      PTSUNNY   61  55  82 N2        29.88S
THUNDER BAY    FOG       50  50 100 E5        29.91R VSB 1
SIOUX LOOKOUT  MOSUNNY   63  55  77 SW3       29.82S
TORONTO        MOSUNNY   79  68  69 VRB2      29.95S
BIG TROUT LK   CLOUDY    41  39  93 N9G18     29.97R FOG
PICKLE LAKE    CLOUDY    57  55  94 N3        29.84R
DRYDEN         MOSUNNY   61  55  82 W6        29.82R
KENORA         PTSUNNY   63  55  77 N3        29.81S
$$
                *** MANITOBA***

CITY           SKY/WX    TMP DP  RH WIND       PRES   REMARKS
BRANDON        LGT RAIN  55  55 100 NE7       29.83R
DAUPHIN        CLOUDY    54  50  87 N15       29.91R
ISLAND LAKE    DRIZZLE   39  37  93 NE9       30.03
PILOT MOUND      N/A     57  55  94 NE6         N/A
THE PAS        CLOUDY    39  36  87 NE8G17    30.06R
THOMPSON       LGT SNOW  32  30  93 NE14G21   30.16R FOG     WCI  22
WINNIPEG       CLOUDY    59  59 100 NE5       29.79S
LYNN LAKE      CLOUDY    36  30  80 E14G21    30.17R
CHURCHILL      CLOUDY    28  27  93 NE14      30.33R WCI  17
GILLAM         FLURRIES  32  28  86 NE16G22   30.19R WCI  21
$$
                ***SASKATCHEWAN***

CITY           SKY/WX    TMP DP  RH WIND       PRES   REMARKS
ESTEVAN        LGT RAIN  57  54  88 NW7       29.86S
KINDERSLEY     MOSUNNY   59  46  63 S12       29.87R
LLOYDMINSTER   MOSUNNY   59  50  72 SE10      29.84R
PRINCE ALBERT  MOSUNNY   55  46  71 E14G23    29.94R
REGINA         MOSUNNY   59  52  77 E6        29.89S
YORKTON        PTSUNNY   57  52  82 N10       29.91R
N. BATTLEFORD  PTSUNNY   63  50  63 SE7       29.89R
LA RONGE       CLOUDY    43  37  81 NE14      30.04S
SASKATOON      MOSUNNY   61  54  77 NE6       29.89R
SWIFT CURRENT  MOSUNNY   55  50  82 VRB5G29   29.89R
$$
NOTE: THESE ARE AUTOMATED STATIONS WITH LIMITED QUALITY CONTROL
      "FAIR" INDICATES FEW OR NO CLOUDS BELOW 12,000 FEET WITH NO
      SIGNIFICANT WEATHER AND/OR OBSTRUCTIONS TO VISIBILITY.
      SKY/WX - SKY CONDITION AND SIGNIFICANT WEATHER.
      TMP - AIR TEMPERATURE.    DP   - DEWPOINT TEMPERATURE.
      RH  - RELATIVE HUMIDITY.  PRES - PRESSURE.
      HX  - HEAT INDEX.         WCI  - WIND CHILL INDEX.
$



USA.gov is the U.S. government's official web portal to all federal, state and local government web resources and services.